Flag for Norway Weather past 2 weeks in Tromsø, Norway

Now
35 °F

Overcast.


Feels Like: 35 °F
Forecast: 29 / 33 °F
Wind: No wind

Location: Tromso / Langnes


UV Index: 0 (Low)

Visibility: 25 mi


Pressure: 30.06 "Hg

Humidity: 67%

Dew point: 25 °F

Location of TromsøLocation

Historic Weather in Tromsø

°F

Tromsø temperature yesterday

Maximum temperature yesterday: 41 °F (at 6:00 PM)
Minimum temperature yesterday: 33 °F (at 8:00 AM)
Average temperature yesterday: 37 °F

Past Weeks' High & Low Weather Summary

 TemperatureHumidityPressure
High44 °F (Apr 13, 2:00 PM)96% (Apr 18, 4:00 AM)30.33 "Hg (Apr 18, 4:00 AM)
Low18 °F (Apr 8, 6:00 AM)43% (Apr 8, 2:00 PM)29.03 "Hg (Apr 13, 2:00 AM)
Average35 °F76%29.66 "Hg
* Reported Apr 6 4:00 AM — Apr 21 4:00 AM, Tromsø, Weather by CustomWeather, © 2014

Note: Actual official high and low records may vary slightly from our data, if they occured in-between our weather recording intervals... More about our weather records

Advertising

Historic Weather Conditions — Data for Previous 24 hours

 ConditionsComfort  
Time TempWeatherWind HumidityBarometerVisibility
4:00 AM
Apr 21
35 °FOvercast.No wind67%30.06 "Hg25 mi
3:00 AM34 °FPassing clouds.2 mph73%30.09 "Hg19 mi
2:00 AM33 °FOvercast.2 mph71%30.12 "Hg17 mi
1:00 AM33 °FOvercast.2 mph73%30.14 "Hg14 mi
12:00 AM33 °FPassing clouds.2 mph73%30.18 "Hg11 mi
11:00 PM
Apr 20
34 °FClear.No wind70%30.21 "Hg12 mi
10:00 PM36 °FClear.2 mph64%30.23 "Hg9 mi
9:00 PM37 °FSunny.No wind67%30.25 "Hg4 mi
8:00 PM39 °FSunny.2 mph69%30.26 "Hg12 mi
7:00 PM40 °FSunny.5 mph59%30.27 "Hg19 mi
6:00 PM41 °FSunny.5 mph63%30.29 "Hg19 mi
5:00 PM40 °FSunny.5 mph66%30.32 "Hg22 mi
4:00 PM39 °FSunny.7 mph68%30.32 "Hg22 mi
3:00 PM39 °FPassing clouds.8 mph73%30.33 "Hg19 mi
2:00 PM40 °FPassing clouds.9 mph71%30.33 "Hg22 mi
1:00 PM40 °FOvercast.9 mph70%30.32 "Hg19 mi
12:00 PM39 °FPartly sunny.9 mph78%30.30 "Hg25 mi
11:00 AM35 °FLight fog.3 mph87%30.29 "Hg5 mi
10:00 AM35 °FPartly sunny.5 mph88%30.27 "Hg28 mi
9:00 AM33 °FDrizzle. Overcast.3 mph94%30.26 "Hg11 mi
8:00 AM33 °FSnow flurries. Dense fog.7 mph91%30.24 "Hg2 mi
7:00 AM36 °FOvercast.3 mph68%30.20 "Hg17 mi
6:00 AM36 °FOvercast.1 mph68%30.17 "Hg18 mi
Weather by CustomWeather, © 2014

See weather overview